Location: Unspecified
(0.0000°N, 0.0000°E)
Time: 03:43:32
(UTC+00:00)

N. Korean satellite - Pass Details

Date: 02 February 2023
Orbit: 408 x 444 km, 97.3° (Epoch: 27 January)

Event Time Altitude Azimuth Distance (km) Brightness Sun altitude
Rises 04:44:53 0° 19° (NNE) 2,382 10.1 -21.2°
Reaches altitude 10° 04:46:55 10° 25° (NNE) 1,525 9.2 -20.7°
Maximum altitude 04:50:05 48° 101° (E) 573 7.3 -19.9°
Drops below altitude 10° 04:53:18 10° 177° (S) 1,548 9.4 -19.2°
Sets 04:55:22 0° 182° (S) 2,423 10.3 -18.7°
